Wind_Speed
47 48 48 46 46 46 46 45 44 43 44 45 45 44 43 43 42 41 40 39 38 38 37 36 35 35 34 33 32 32 32 32 31 30 30 30 30 30 30 31 30 30 30 31
46 48 46 45 46 46 46 46 45 44 44 45 46 45 44 44 42 40 40 39 38 38 38 37 36 35 34 33 33 33 33 33 33 32 32 32 32 32 31 31 31 31 32 32
46 45 45 46 46 47 47 45 44 44 44 45 46 46 45 44 43 42 41 40 39 38 38 37 36 35 35 34 34 34 34 34 34 34 34 33 33 33 33 33 33 33 33 34
46 46 46 46 46 46 46 44 44 45 45 46 46 46 45 45 44 43 42 40 39 39 38 38 37 36 36 35 35 35 35 35 35 34 34 34 34 34 34 34 34 35 35 35
46 46 47 46 45 45 44 44 44 45 46 46 46 47 45 45 44 43 42 41 40 40 39 39 38 37 37 37 37 36 36 36 35 35 35 35 35 35 35 36 36 36 37 37
46 46 46 45 44 45 45 44 45 45 46 48 46 47 46 44 43 42 42 42 41 41 40 40 39 39 38 38 38 37 37 36 36 36 36 36 36 36 36 37 38 38 38 39
45 46 46 46 45 46 47 46 46 46 48 49 46 47 46 43 42 42 41 41 42 42 41 41 40 40 39 39 38 38 37 37 37 37 37 36 37 37 37 38 38 39 40 40
42 44 46 46 46 47 46 46 47 47 48 48 46 47 45 44 43 42 42 41 41 41 41 41 40 40 39 39 38 38 38 38 37 37 37 37 38 38 38 39 39 40 40 41
41 41 43 45 45 45 45 45 45 46 47 47 47 46 45 43 43 42 42 42 41 41 41 41 41 40 39 39 39 39 38 38 38 38 39 39 39 39 39 40 40 41 41 42
38 40 41 43 45 46 45 44 44 45 46 46 46 46 44 41 41 41 42 42 42 42 42 41 41 41 40 40 40 40 40 40 39 39 39 39 40 40 40 41 42 42 43 44
37 39 40 41 44 45 45 45 45 44 45 45 45 44 42 40 40 40 40 41 42 42 42 42 41 41 41 41 41 41 41 40 40 40 40 40 41 41 41 42 43 43 44 44
36 38 38 40 42 43 45 45 45 45 45 44 44 43 41 39 38 38 39 40 41 41 41 41 41 41 41 41 41 41 42 41 41 41 41 42 42 42 43 43 44 44 44 45
35 36 37 39 41 42 44 45 46 45 45 44 43 43 41 39 38 37 38 38 39 39 40 40 41 41 40 41 42 42 42 42 42 43 43 43 43 43 43 44 44 45 45 45
34 36 37 38 38 38 40 42 44 45 46 45 44 42 40 39 38 37 38 38 38 38 39 39 40 40 41 41 41 42 42 43 43 43 43 43 44 44 44 45 45 45 45 46
33 34 36 37 36 36 37 39 41 43 44 44 42 42 41 40 39 38 38 39 39 39 39 39 40 41 41 41 42 42 42 43 43 44 44 44 45 45 45 45 45 45 45 46
32 32 34 35 35 35 35 37 39 41 42 42 42 42 41 40 40 40 39 40 40 40 40 40 41 41 42 42 42 43 43 43 44 44 44 45 45 46 46 46 46 46 46 47
30 30 31 34 35 35 35 36 37 39 40 40 40 40 41 41 40 40 40 41 41 41 41 41 41 41 41 41 42 43 43 44 45 45 45 46 46 46 47 47 47 47 47 48
28 28 29 30 33 35 35 34 36 37 37 38 39 39 40 40 40 40 40 39 40 40 40 40 40 40 41 41 42 42 43 44 44 45 45 45 46 47 47 47 47 48 48 48
28 28 28 29 31 33 33 33 33 35 36 36 37 37 38 39 39 39 39 38 38 39 39 39 40 40 41 41 42 43 43 43 43 44 45 45 46 47 47 47 48 47 47 48
27 28 28 29 30 31 32 32 31 32 34 34 34 35 37 37 37 36 37 37 37 38 38 39 39 40 41 42 42 42 43 44 44 45 45 45 46 46 46 46 46 47 47 48
27 28 29 29 30 31 31 31 31 31 31 32 33 33 35 36 35 36 36 37 38 38 38 39 40 40 41 42 42 43 43 44 45 45 45 45 44 44 44 44 45 46 47 48
27 27 27 28 29 30 31 31 31 30 30 30 31 32 33 33 33 34 35 36 37 37 37 38 39 39 40 41 42 43 44 44 44 45 45 45 44 44 45 45 46 46 47 48
27 27 27 28 28 28 30 32 32 31 30 30 31 31 32 33 34 34 35 36 37 37 37 38 39 39 40 40 41 42 43 43 44 45 45 45 45 45 45 45 45 46 46 46
26 27 27 27 28 28 29 30 31 32 32 31 31 30 31 32 33 35 35 35 36 37 38 38 39 39 40 41 41 42 42 43 43 43 43 44 44 44 44 45 45 45 45 45
22 25 27 27 28 28 29 31 32 32 32 32 32 31 31 31 32 34 35 36 36 37 37 38 39 39 40 40 41 41 42 43 43 43 43 43 43 43 43 44 44 44 44 43
19 21 22 24 26 27 28 29 30 31 31 32 33 33 32 32 32 33 34 35 36 36 37 38 38 39 40 41 41 42 42 42 42 43 43 43 43 43 43 43 43 43 42 42
Wind_Direction
224 226 227 228 229 230 231 231 230 230 231 231 231 230 229 230 231 231 231 232 232 232 233 234 235 237 238 240 242 244 246 248 250 252 255 257 258 260 262 265 268 270 272 275
224 226 227 228 229 229 230 230 229 229 230 231 231 231 230 231 231 231 231 232 232 232 233 234 236 237 239 241 243 244 246 249 251 253 255 257 259 261 263 266 269 271 273 275
224 226 226 227 228 229 229 230 229 230 231 232 232 231 230 231 231 231 231 231 232 233 233 235 236 238 240 242 244 246 248 250 251 253 255 257 259 261 263 266 269 271 274 276
223 224 226 227 227 229 229 228 230 230 232 233 233 233 230 230 231 231 231 232 233 234 234 236 237 239 241 243 245 246 249 250 251 253 255 257 259 261 263 266 269 272 274 276
222 224 225 226 227 228 229 228 230 231 232 234 233 235 230 231 231 231 232 233 234 235 235 237 238 240 241 243 245 247 249 250 252 254 255 257 259 262 264 267 270 272 274 276
223 224 226 226 225 226 227 228 229 231 232 234 233 235 233 232 232 232 233 234 234 235 236 237 239 240 242 244 246 248 249 251 253 254 256 258 260 262 265 268 270 272 275 277
222 224 225 225 224 224 226 226 227 229 232 234 233 235 235 233 232 232 234 235 236 237 238 238 239 241 243 245 246 248 249 251 253 255 257 259 261 263 265 268 270 273 275 277
221 223 225 225 225 225 226 228 230 232 235 236 236 237 235 234 234 233 234 235 237 238 239 239 240 241 243 245 246 248 249 251 253 255 257 258 260 263 266 268 271 273 275 277
224 224 224 225 225 225 226 227 230 234 237 238 238 238 236 236 236 236 235 236 236 237 238 239 240 241 243 245 246 248 250 251 253 255 257 258 261 263 266 269 271 274 276 278
226 227 224 224 224 224 227 228 230 232 236 238 238 238 238 238 238 238 237 237 237 238 239 239 240 241 242 244 246 248 250 251 253 254 257 259 262 265 267 270 272 274 276 278
226 227 226 225 225 225 225 226 229 232 235 237 239 239 239 239 239 239 239 238 238 238 239 240 241 241 243 245 247 248 250 251 253 255 257 260 263 266 268 271 273 275 277 279
224 226 227 227 227 227 227 228 229 232 234 237 240 240 239 240 240 240 240 239 239 239 240 240 240 241 243 245 247 248 249 251 253 255 257 260 263 266 268 271 273 276 277 278
222 224 225 226 226 227 228 227 229 231 234 237 239 241 240 241 240 240 240 239 239 239 240 241 241 241 243 245 247 248 250 252 254 256 259 261 263 266 269 272 274 275 277 278
221 224 226 227 227 228 229 229 229 231 233 235 238 240 241 241 241 241 240 239 239 239 239 240 241 241 243 245 247 248 251 253 255 257 259 261 264 267 270 272 274 275 277 278
222 226 226 227 228 228 229 229 230 232 234 236 237 239 240 240 240 240 240 240 240 240 241 241 241 241 242 244 246 248 251 253 255 258 260 262 265 267 270 272 273 275 277 279
224 227 227 228 228 229 229 229 230 232 233 235 236 236 238 240 241 241 241 241 241 241 242 243 244 245 246 246 247 249 251 253 255 258 260 263 265 268 270 272 273 275 277 279
225 228 229 229 229 230 230 229 230 233 234 236 237 237 238 240 241 241 241 242 242 242 243 245 246 246 247 248 249 250 252 254 256 258 261 263 265 268 271 272 274 275 277 279
224 226 227 229 229 230 231 231 232 233 235 236 237 236 238 239 240 242 243 243 243 242 243 244 245 247 248 249 249 251 252 254 256 259 262 264 267 269 270 272 273 275 277 279
224 225 227 228 230 231 231 231 233 234 235 236 237 236 237 238 239 240 241 242 242 243 243 245 246 247 249 250 251 252 253 255 258 260 262 265 267 269 271 272 274 276 277 279
225 226 228 230 231 231 231 231 232 234 236 236 237 237 237 238 239 240 241 242 243 243 243 245 246 248 250 251 252 253 254 256 258 261 264 266 268 270 271 272 274 276 278 280
224 225 228 231 233 232 231 232 232 235 236 236 237 237 236 238 240 240 242 243 244 245 246 247 248 250 251 252 253 255 257 259 260 262 265 268 269 270 271 273 275 277 279 281
227 227 230 232 232 233 233 234 236 237 236 237 238 238 238 239 240 241 242 243 244 246 248 249 250 252 253 254 254 256 258 260 262 264 266 267 268 270 272 274 276 278 280 282
234 233 234 234 234 234 236 236 236 237 238 238 239 239 240 240 242 243 243 244 245 247 249 251 252 253 254 255 256 257 259 261 263 265 267 268 269 271 273 275 277 279 280 282
238 238 238 239 237 236 235 234 235 237 239 239 240 240 241 241 241 242 243 245 248 250 251 252 253 255 256 257 257 258 260 262 264 266 268 269 271 273 274 276 278 279 280 281
240 242 242 242 242 240 238 237 237 238 239 239 241 242 244 244 244 244 245 247 249 251 252 254 255 256 257 258 260 261 263 264 265 267 268 269 271 273 275 277 278 279 280 281
240 241 241 242 243 242 240 238 238 238 239 240 241 244 246 247 248 248 248 249 250 252 253 255 256 257 259 260 262 263 264 265 267 268 268 269 271 272 274 276 278 279 280 282
Height
5629 5636 5642 5650 5656 5662 5668 5674 5680 5685 5689 5693 5698 5704 5710 5714 5719 5725 5730 5734 5739 5743 5747 5750 5754 5757 5761 5764 5767 5769 5771 5773 5775 5776 5778 5779 5780 5781 5782 5782 5783 5783 5783 5783
5621 5628 5637 5642 5647 5652 5658 5664 5670 5676 5680 5684 5690 5695 5702 5706 5712 5718 5722 5727 5732 5736 5740 5744 5747 5751 5754 5757 5760 5763 5765 5767 5769 5770 5771 5773 5774 5775 5776 5776 5777 5776 5776 5776
5613 5623 5628 5633 5638 5644 5650 5657 5663 5668 5672 5675 5681 5687 5693 5699 5704 5709 5714 5719 5724 5729 5733 5737 5741 5744 5747 5751 5753 5756 5758 5760 5761 5763 5764 5766 5767 5768 5769 5769 5769 5769 5769 5769
5604 5612 5618 5623 5630 5636 5643 5649 5654 5658 5662 5667 5672 5677 5685 5690 5695 5701 5707 5712 5717 5721 5725 5729 5733 5737 5740 5743 5746 5748 5750 5752 5754 5756 5757 5758 5760 5761 5761 5762 5762 5762 5762 5761
5595 5603 5608 5615 5623 5629 5635 5641 5645 5649 5653 5658 5663 5668 5677 5681 5687 5694 5700 5704 5709 5713 5718 5722 5725 5729 5732 5735 5738 5740 5743 5745 5747 5748 5750 5751 5752 5753 5754 5754 5754 5754 5754 5753
5587 5594 5600 5608 5615 5620 5625 5631 5635 5639 5643 5648 5656 5660 5667 5674 5681 5687 5692 5696 5701 5705 5709 5713 5717 5721 5724 5727 5730 5732 5735 5737 5739 5740 5742 5743 5744 5745 5746 5746 5746 5746 5745 5744
5578 5584 5591 5598 5604 5610 5616 5622 5626 5629 5632 5639 5648 5650 5659 5667 5673 5678 5684 5688 5693 5697 5701 5705 5709 5712 5716 5718 5722 5724 5727 5729 5730 5732 5734 5735 5736 5737 5737 5738 5737 5737 5736 5736
5570 5576 5583 5589 5596 5602 5608 5614 5619 5623 5627 5634 5638 5642 5652 5659 5664 5670 5675 5679 5684 5688 5692 5696 5700 5704 5707 5710 5713 5716 5718 5720 5722 5724 5725 5727 5728 5728 5729 5729 5728 5728 5727 5726
5562 5569 5576 5582 5588 5595 5599 5605 5612 5616 5620 5625 5630 5636 5644 5650 5656 5661 5666 5671 5675 5679 5683 5687 5691 5695 5698 5701 5704 5707 5709 5712 5713 5715 5717 5718 5718 5719 5719 5719 5719 5718 5717 5716
5555 5561 5568 5574 5579 5585 5592 5599 5603 5607 5611 5616 5622 5629 5637 5643 5647 5653 5658 5662 5666 5670 5674 5678 5682 5686 5689 5693 5695 5698 5700 5702 5704 5706 5707 5709 5709 5710 5710 5710 5709 5708 5707 5706
5548 5554 5560 5565 5570 5577 5584 5589 5594 5599 5604 5609 5614 5624 5630 5635 5639 5644 5648 5653 5657 5661 5665 5669 5673 5677 5680 5683 5686 5689 5691 5693 5695 5697 5698 5699 5700 5700 5700 5700 5699 5698 5697 5695
5542 5547 5553 5558 5564 5570 5576 5582 5587 5593 5597 5602 5608 5617 5621 5626 5630 5634 5639 5644 5648 5652 5656 5660 5664 5668 5671 5674 5677 5679 5681 5683 5685 5687 5688 5689 5690 5690 5690 5690 5689 5688 5686 5685
5535 5540 5545 5551 5558 5562 5567 5573 5579 5585 5590 5594 5600 5609 5613 5618 5622 5626 5630 5635 5639 5643 5647 5651 5654 5658 5661 5664 5667 5669 5672 5674 5675 5677 5678 5679 5680 5680 5680 5679 5678 5677 5675 5674
5529 5534 5540 5546 5551 5556 5561 5566 5571 5576 5581 5586 5593 5600 5605 5609 5613 5618 5622 5626 5630 5634 5638 5642 5645 5648 5651 5654 5657 5660 5662 5663 5665 5667 5668 5669 5669 5669 5669 5668 5667 5666 5664 5663
5523 5528 5533 5538 5544 5549 5554 5559 5564 5568 5574 5580 5586 5591 5596 5600 5604 5608 5612 5617 5621 5625 5629 5632 5636 5639 5642 5644 5647 5649 5651 5653 5655 5656 5657 5658 5658 5658 5658 5657 5656 5654 5653 5652
5517 5522 5527 5532 5537 5541 5546 5551 5556 5561 5566 5571 5577 5582 5587 5591 5595 5599 5604 5608 5612 5616 5619 5623 5626 5629 5632 5635 5637 5639 5641 5642 5644 5645 5646 5647 5647 5647 5646 5645 5644 5643 5642 5640
5512 5517 5521 5526 5531 5534 5539 5544 5549 5554 5559 5564 5569 5576 5579 5583 5586 5590 5594 5598 5602 5606 5610 5613 5617 5620 5622 5625 5627 5629 5630 5632 5633 5634 5635 5636 5636 5636 5635 5634 5633 5632 5630 5629
5507 5511 5515 5520 5525 5528 5536 5538 5542 5547 5552 5556 5561 5566 5570 5574 5578 5581 5585 5589 5593 5596 5600 5603 5607 5609 5612 5614 5616 5618 5620 5621 5622 5623 5624 5624 5624 5624 5623 5622 5621 5620 5618 5617
5502 5507 5510 5514 5517 5522 5528 5532 5536 5540 5545 5549 5553 5557 5561 5565 5569 5573 5576 5580 5584 5587 5590 5594 5597 5599 5602 5604 5606 5608 5609 5611 5612 5612 5613 5613 5613 5612 5611 5611 5609 5608 5607 5605
5497 5501 5505 5508 5512 5516 5523 5526 5529 5534 5538 5542 5546 5550 5553 5557 5562 5566 5569 5572 5575 5578 5581 5584 5586 5589 5591 5593 5595 5597 5598 5600 5601 5601 5601 5601 5601 5600 5600 5599 5598 5596 5595 5593
5492 5495 5499 5502 5506 5510 5516 5519 5523 5529 5533 5535 5538 5542 5545 5549 5554 5557 5560 5563 5566 5568 5571 5574 5576 5578 5580 5582 5584 5586 5587 5588 5589 5590 5590 5590 5589 5589 5588 5587 5586 5585 5583 5581
5487 5490 5494 5497 5501 5507 5509 5513 5517 5521 5525 5528 5531 5534 5538 5541 5545 5548 5551 5554 5556 5559 5561 5564 5566 5568 5570 5571 5573 5575 5576 5577 5578 5578 5578 5578 5578 5577 5577 5576 5574 5573 5571 5569
5482 5486 5488 5492 5497 5500 5502 5506 5509 5513 5517 5521 5524 5527 5531 5534 5537 5540 5542 5545 5547 5550 5552 5554 5556 5558 5559 5561 5562 5564 5565 5566 5566 5567 5567 5566 5566 5566 5565 5564 5563 5561 5559 5557
5477 5480 5483 5486 5489 5493 5496 5499 5502 5506 5510 5513 5516 5519 5523 5525 5528 5531 5534 5536 5538 5541 5543 5544 5546 5547 5549 5550 5551 5553 5554 5555 5555 5555 5555 5555 5555 5554 5553 5552 5551 5549 5547 5545
5472 5474 5477 5480 5483 5486 5489 5492 5496 5499 5502 5506 5509 5512 5514 5517 5520 5522 5525 5527 5529 5531 5533 5534 5536 5537 5539 5540 5541 5542 5543 5543 5544 5544 5544 5544 5543 5542 5542 5540 5539 5537 5536 5534
5467 5470 5472 5475 5477 5480 5483 5485 5488 5492 5495 5498 5501 5504 5507 5509 5511 5513 5516 5518 5519 5521 5523 5524 5526 5527 5528 5529 5530 5531 5531 5532 5532 5532 5532 5532 5532 5531 5530 5529 5528 5525 5524 5522